H-1 R/B(MABES), 16910

Orbit data source: Space-Track

H-1 R/B(MABES), 16910 is space debris in LEO originally from a launch on Tue, 12 Aug 1986 UTC via an H-1 launch vehicle from the Tanegashima Space Center (TNSTA). Debris objects in space refer to the collection of defunct objects orbiting the Earth. Examples of debris include non-operational satellites, rocket bodies, and fragments generated from explosions, collisions, or faulty payload assembly.

Loading next visibility...
Identifier
16910, 1986-061C
Orbit
LEO
Country
Flag of JPJP / JPN
Related business
Manufacturer
NAL
Mission
Spacecraft
Bus & Motor
NASDA ATTACHED, Unknown motor
Mass
294 kg wet, 294 kg dry
Launch date (UTC)
1986-08-12 (39 years ago)
Launch vehicle
H-1
Launch site
Tanegashima Space Center (TNSTA)
Object type
Payload
Rocket body
Debris
Shape & HBR
Cyl, 6.8 m
Radar Cross Section
29.020 m², Large (>1 m²)

Expand to show TLE details & history
Last TLE update: 15 hours ago

TLE from 15 hours ago
0 H-1 R/B(MABES)
1 16910U 86061C   25347.02104124 -.00000086  00000-0  65371-4 0  9994
2 16910  50.0043 256.6073 0072370 167.9375 282.9014 12.32651034771487
Epoch: 2025-12-13T00:30Z
TLE epoch observation values (Epoch: 2025-12-13T00:30:17.963Z)
Latitude
50.14213°
Longitude
-102.87698°
Altitude
1,531.205 km
Speed
7.111 km/s
True Right ascension
23h 06m 36s
True Declination
49° 59' 22"
Sunlit
Object was in daylight at epoch
Visualization orbit readout
Latitude
Unknown
Longitude
Unknown
Altitude
Unknown
Speed
Unknown
Apparent Right ascension
Unknown
Apparent Declination
Unknown
Sunlit
N/A
Visualization observer readout
Local Sidereal Time
14:28:39
Azimuth
Unknown
Elevation
Unknown
Doppler factor
Unknown
Orbital elements
Apogee altitude
1,595.875 km
Perigee altitude
1,481.288 km
Semi-major axis
7,916.719 km
Eccentricity
0.00724
Inclination
50.0043°
RAAN
256.6073°
Arg. of periapsis
167.9375°
True anomaly
282.09143°
Mean anomaly
282.9014°
Eccentric anomaly
282.49657°
Mean motion
3.08124 °/min
Orbital period
116.84 mins
BSTAR
0.000065371
Loading maneuver chart data...
Computing Atmospheric mass density...
Loading historical data...
Loading historical data...
Loading historical data...
Loading historical data...
Loading historical data...
Loading historical data...
Loading historical data...
Other satellites on launch #61 in the year 1986 (1986-08-12 UTC)

Documentation

Showing up to 5 results
|